RH
63 67 70 77 83 85 85 84 87 86 84 85 79 73 67 61 57 55 56 56 54 52 50 50 52 52 56 59 61 63 63 62 62 58 58 58 64 68 63 63 60 56 56 55 54 52 50 49 50 50 51 51 50 52 53 55 57 55 55 55 54 55 56 56 59 60 61 60 56 55 57 57 56 56 56 57 59 59 60 59 61 62 59 60 60 58 57 59 60 57 55 57 57 55 57 56 56
67 70 75 82 85 86 86 85 87 84 83 88 82 68 60 58 57 56 55 51 48 47 48 51 52 52 54 55 54 56 58 59 57 52 52 57 61 60 60 64 62 58 58 55 52 49 49 50 50 52 52 52 51 53 54 56 58 56 58 60 56 55 57 59 60 60 60 57 55 56 55 54 57 59 58 59 62 60 60 60 60 63 61 59 59 58 60 62 61 58 55 55 53 48 49 49 47
72 77 80 84 87 86 86 88 89 85 82 85 81 69 62 61 57 52 50 47 46 46 48 51 49 50 51 50 49 51 54 53 51 49 50 55 56 53 59 64 63 59 56 53 50 48 50 51 51 53 52 53 53 53 57 61 61 57 61 61 57 57 59 60 57 58 60 57 56 57 55 55 58 61 61 61 61 60 60 61 61 63 62 59 58 57 59 62 61 58 55 54 49 45 44 42 42
73 79 82 86 88 86 89 92 90 88 83 81 79 73 68 61 52 48 47 47 48 48 50 53 52 52 50 46 44 46 51 50 50 50 48 50 51 50 57 61 60 58 56 55 51 48 49 49 50 50 50 53 54 53 56 62 61 57 60 61 59 61 62 61 55 56 59 57 57 57 56 58 61 61 61 59 59 59 58 60 62 63 62 60 57 56 59 62 63 60 56 54 50 47 44 41 41
71 76 80 85 88 86 90 92 88 88 83 81 80 72 65 55 47 49 49 49 51 51 51 53 53 50 46 41 38 41 47 48 51 51 47 49 50 51 54 56 56 56 57 56 51 48 48 48 49 50 51 53 54 54 55 55 56 56 57 58 61 63 60 58 55 55 57 58 59 58 57 58 59 59 60 59 58 58 58 60 61 63 62 59 57 56 57 61 64 63 58 54 51 48 44 41 42
72 79 81 83 88 86 88 91 88 87 81 80 77 67 59 50 48 51 51 52 53 53 54 54 49 42 41 38 36 41 46 48 50 50 48 49 51 52 52 53 55 55 56 52 45 44 47 48 49 51 51 54 55 57 56 53 54 55 57 60 64 63 56 54 54 55 57 58 60 61 59 57 56 56 56 56 58 58 58 60 60 63 63 60 58 57 57 59 61 61 58 55 50 47 46 43 44
74 81 82 84 88 86 87 88 88 88 82 78 73 63 57 50 51 53 53 54 53 53 53 50 43 37 40 39 38 44 46 46 47 47 47 49 50 51 51 53 56 55 54 49 40 41 45 47 49 51 53 57 58 60 57 55 57 57 57 60 61 58 54 53 54 56 58 59 67 68 60 59 60 59 56 56 58 59 58 60 61 63 63 60 59 58 57 58 58 57 56 52 47 46 47 45 44
72 77 79 82 85 86 88 85 85 87 81 76 70 62 59 54 54 58 58 55 53 54 49 47 42 36 40 39 40 48 46 43 44 44 46 47 51 53 52 53 55 56 54 46 40 41 43 45 49 52 56 57 58 58 58 59 60 60 59 57 56 55 54 54 55 58 61 63 69 69 59 61 66 64 62 60 59 60 59 61 63 64 65 61 59 59 58 57 56 54 51 49 46 46 46 44 44
71 75 79 80 82 86 88 83 84 88 81 76 70 62 59 57 57 60 61 55 53 53 49 49 41 35 41 39 43 48 41 40 41 43 45 48 52 54 53 54 56 56 51 44 42 44 44 46 50 53 58 59 59 59 60 62 64 64 60 58 56 55 55 56 58 61 65 64 63 64 62 65 69 66 65 63 62 62 60 62 63 63 64 62 61 60 58 57 57 53 50 48 46 44 42 43 44
72 75 77 79 84 85 86 86 85 86 82 76 69 63 60 59 57 58 62 57 53 56 53 49 41 36 40 41 44 42 35 37 40 43 46 49 52 52 53 56 59 57 51 47 47 47 47 48 50 52 56 59 61 61 62 64 65 64 61 59 58 58 59 60 64 66 66 61 59 63 66 69 69 66 67 65 64 63 61 61 63 64 64 63 60 58 57 57 57 54 50 46 43 41 41 43 45
72 74 74 79 86 82 83 88 86 84 82 77 71 66 63 60 58 58 61 59 56 58 53 48 43 37 38 42 43 38 34 35 37 44 47 50 52 52 55 58 61 61 56 54 51 48 47 48 51 53 55 58 59 61 65 66 65 64 62 61 60 62 62 65 70 66 61 59 61 66 68 69 67 66 68 66 64 63 61 61 63 65 65 63 61 60 57 56 57 53 47 43 41 40 41 44 45
70 75 77 81 85 82 81 84 85 83 80 77 73 70 68 64 61 58 59 62 58 54 51 48 44 35 35 40 38 37 37 37 40 46 48 52 53 52 56 57 59 61 58 55 53 52 50 51 56 58 58 59 59 62 65 67 66 64 64 65 65 65 66 71 71 63 59 59 61 64 66 66 65 67 68 67 65 63 62 62 63 64 64 63 60 57 57 57 55 48 43 42 40 41 42 42 42
67 72 80 79 80 82 80 83 85 81 77 77 75 72 73 68 63 61 60 62 58 54 54 48 42 34 33 35 37 42 43 40 42 46 48 51 51 50 52 54 56 57 56 56 57 58 59 59 62 63 61 61 61 64 66 67 66 65 65 67 69 66 66 70 65 60 61 60 61 65 66 65 64 67 68 67 66 63 63 62 61 62 63 62 57 54 54 55 50 44 42 42 41 41 40 39 38
64 67 75 76 78 81 78 83 85 78 74 77 77 72 73 70 63 64 62 60 59 57 53 47 43 37 31 32 39 45 43 41 42 44 48 49 49 50 51 53 55 56 57 60 62 63 64 65 66 66 64 63 65 67 68 68 67 66 67 68 71 66 62 62 60 61 64 62 64 67 68 66 66 68 67 67 66 64 63 61 61 62 62 59 54 51 50 47 43 41 41 41 40 39 37 36 36
62 63 70 75 79 79 76 81 84 78 75 76 76 72 74 70 64 66 65 61 58 55 52 49 45 37 29 30 40 44 39 40 41 42 44 45 47 50 53 55 56 57 59 62 64 64 64 65 67 69 68 65 68 70 68 67 66 65 66 69 69 66 61 61 63 65 65 64 65 66 68 69 68 68 67 67 66 65 64 63 63 62 60 58 53 50 45 40 38 38 38 38 39 37 34 32 32
61 62 68 76 77 77 78 80 80 79 76 75 74 73 75 70 63 66 66 62 57 54 52 51 47 38 31 33 38 38 36 37 38 39 40 42 45 49 54 56 56 57 59 61 65 63 62 66 67 70 72 67 68 69 66 65 65 64 64 65 65 64 64 66 66 67 67 65 64 65 69 69 67 67 67 67 67 66 65 63 64 61 60 58 53 48 41 38 37 37 37 38 38 34 31 28 30
57 62 69 75 76 80 82 80 80 79 76 74 74 74 74 67 65 66 64 60 57 56 53 53 50 40 36 36 35 33 33 35 36 37 38 41 44 49 54 55 55 57 59 60 63 64 63 67 67 68 69 65 64 65 65 64 63 63 62 62 62 63 65 68 69 69 69 66 64 64 66 66 64 64 64 65 64 65 65 63 62 60 59 56 52 45 40 39 38 37 37 38 36 31 27 27 29
57 64 72 76 77 81 82 81 83 83 78 74 75 75 69 64 64 62 62 60 57 58 53 52 49 41 41 36 32 31 30 33 35 36 37 40 44 50 54 54 55 56 59 60 62 66 65 67 68 66 65 64 64 64 64 63 63 62 61 62 62 63 65 69 71 70 68 66 65 63 63 63 62 62 62 62 62 63 63 61 60 58 56 53 48 43 41 41 40 39 38 37 32 27 25 27 31
61 66 71 74 77 79 79 81 86 89 84 77 75 74 66 61 60 59 61 60 57 58 51 48 48 42 40 35 30 29 30 32 34 34 36 40 44 51 55 54 54 55 59 62 64 68 68 67 69 68 65 63 65 65 62 61 62 61 60 61 63 64 64 66 68 68 67 67 65 62 60 60 60 60 60 61 62 63 60 58 57 53 51 50 47 44 43 42 41 39 37 35 30 27 27 30 32
62 68 71 71 75 76 75 79 87 90 85 78 75 73 65 56 55 56 61 60 56 56 48 47 48 41 37 34 30 28 29 31 32 33 36 40 45 52 55 53 54 55 59 64 65 67 69 65 64 68 67 62 63 65 62 60 59 59 59 61 63 65 64 64 65 64 68 70 67 62 58 56 57 58 57 58 60 60 58 56 55 51 49 50 48 45 43 43 42 40 38 36 33 32 33 34 34
60 66 69 70 75 75 72 77 88 89 84 80 75 70 63 54 53 56 59 58 57 56 50 49 45 36 36 33 28 27 29 31 32 33 35 40 47 52 54 51 53 55 59 63 64 62 64 63 59 64 67 61 62 66 64 61 60 57 57 58 60 65 66 64 63 63 65 69 66 60 57 55 56 57 55 55 55 55 54 54 53 51 48 47 46 44 45 45 44 42 41 40 37 37 37 36 36
59 63 65 69 74 74 72 74 84 87 83 80 72 66 61 54 55 55 56 57 58 57 52 51 42 33 35 32 27 28 29 32 33 33 36 41 47 51 51 50 52 55 57 60 63 61 60 61 61 63 65 60 60 66 65 63 63 59 56 57 57 63 66 63 62 63 63 65 63 60 58 57 57 57 54 53 51 51 52 54 53 50 48 47 47 47 48 47 45 45 43 41 40 40 38 35 35
58 65 68 71 73 73 73 72 77 80 80 78 71 64 57 53 56 52 53 55 56 57 54 51 44 35 33 30 27 29 30 33 32 31 36 41 47 51 49 49 51 53 56 59 62 62 60 62 63 63 62 58 58 64 63 62 63 60 58 58 56 60 63 62 62 64 64 63 62 61 59 58 58 57 55 55 54 54 54 55 54 51 51 51 51 51 51 48 46 46 43 40 38 38 36 34 33
54 64 72 74 73 73 74 73 74 75 77 76 67 58 53 54 56 53 53 54 54 57 55 51 46 38 33 30 28 28 31 34 34 34 37 43 52 56 49 47 50 53 56 59 61 62 62 63 62 62 61 59 60 63 62 63 62 56 57 57 56 58 61 63 63 65 64 60 61 62 60 59 59 57 55 57 58 59 57 57 56 54 56 56 54 53 52 49 46 43 40 36 32 30 29 30 30
56 62 70 76 75 74 76 74 76 79 74 70 62 55 55 57 54 55 55 52 53 56 55 50 45 40 35 32 28 28 34 39 39 39 40 46 54 57 50 45 47 52 56 58 61 63 63 63 62 62 62 62 64 62 58 61 60 54 56 57 56 56 58 60 62 63 62 58 59 61 60 59 58 57 56 58 61 62 60 60 59 58 59 56 54 53 52 48 44 40 37 34 31 28 27 28 28
57 60 67 75 76 75 78 77 77 79 72 67 63 56 59 60 55 57 57 52 53 55 54 49 44 43 40 38 29 29 38 41 42 41 42 47 51 55 50 44 45 50 56 59 60 62 62 63 64 63 62 64 67 65 59 58 57 53 55 58 57 56 55 56 57 59 60 60 60 60 59 57 56 54 54 56 61 65 66 65 61 60 60 55 53 53 50 47 41 38 37 35 34 32 30 30 30
53 62 67 76 79 76 79 81 77 72 70 68 66 64 62 58 56 58 55 53 54 53 53 48 45 44 43 41 33 34 42 41 41 40 42 47 49 52 49 43 44 48 56 60 61 62 61 63 63 60 61 64 65 64 61 57 55 53 53 55 57 57 56 55 54 54 57 59 60 60 59 57 55 53 55 57 62 67 69 66 61 59 60 57 55 53 49 47 41 37 39 40 39 36 34 33 31
53 63 66 72 78 77 76 79 78 70 69 70 69 69 62 54 56 57 54 53 52 51 53 48 46 45 43 41 36 39 45 41 40 39 42 46 46 50 48 43 44 48 57 62 62 62 62 62 62 60 61 61 60 60 61 56 53 53 52 53 54 56 56 55 53 52 53 56 58 59 58 57 56 57 60 59 63 68 69 71 69 64 61 56 53 50 48 50 46 39 40 40 38 37 36 35 32
54 58 62 71 74 75 75 74 76 74 70 72 72 68 61 60 60 56 54 52 47 48 51 48 46 46 45 42 38 41 45 43 41 40 44 43 42 49 50 47 47 48 57 63 63 63 62 61 60 60 58 56 58 60 61 57 55 54 51 51 51 54 55 52 50 50 51 54 55 55 56 56 58 60 61 62 67 73 74 77 77 73 68 61 55 49 45 48 47 44 43 41 37 37 36 35 34
53 57 61 70 72 74 76 75 74 75 73 71 72 71 68 68 61 55 55 50 45 46 46 47 47 46 47 43 39 42 44 43 40 39 43 43 45 53 53 53 50 49 56 61 64 64 62 61 59 57 54 55 58 59 59 57 55 52 48 48 50 53 54 51 49 49 49 51 51 52 56 56 58 63 63 67 73 73 72 70 71 72 69 64 61 57 52 50 49 49 46 44 42 38 35 34 34
56 64 66 67 72 75 74 74 74 76 78 73 72 75 74 69 58 54 55 49 46 46 45 47 47 47 49 45 42 42 40 40 39 38 39 43 50 56 55 57 54 50 53 59 65 65 62 61 59 56 54 53 54 54 55 55 52 49 47 46 46 48 50 50 49 48 47 47 48 50 53 51 53 59 61 63 63 61 60 57 58 61 58 56 58 58 57 55 51 49 46 46 46 39 35 35 35
57 66 71 66 71 77 72 69 71 74 77 75 74 75 75 71 60 54 53 49 49 50 49 50 49 49 51 46 44 43 39 39 40 37 36 44 54 57 56 58 56 51 49 55 64 66 63 61 59 58 54 50 49 50 51 51 50 49 48 46 44 43 44 46 48 49 46 43 44 46 47 46 46 51 55 56 54 51 50 47 49 52 49 48 53 56 55 54 52 48 45 45 42 36 33 34 33
57 61 69 67 70 78 75 70 69 67 69 74 75 75 76 73 65 57 52 51 52 53 54 54 50 52 50 46 45 41 38 42 42 40 40 47 56 56 56 57 56 53 50 53 62 66 64 61 60 59 54 50 48 48 48 48 47 47 47 46 45 43 42 44 47 51 49 42 39 41 44 45 44 45 50 53 50 47 43 44 49 51 48 46 51 57 55 53 52 46 43 42 38 34 34 33 34
56 57 64 67 72 77 75 73 70 64 65 71 73 74 75 71 65 60 56 56 55 53 56 56 53 54 50 46 46 39 39 44 44 45 45 48 56 57 55 56 56 54 52 53 61 65 63 61 61 59 55 51 45 43 45 45 44 46 46 45 45 43 43 45 46 49 48 40 37 39 42 43 43 44 47 49 47 45 42 44 50 49 48 48 50 56 55 53 52 47 43 41 37 34 33 33 38
57 59 62 67 74 78 75 73 70 65 65 68 70 73 72 70 67 63 61 60 55 51 55 57 56 57 54 48 45 40 41 45 46 49 48 48 56 56 53 54 54 54 54 54 60 65 64 61 59 57 55 51 42 41 42 41 43 46 47 46 45 42 42 46 47 46 46 41 37 38 39 41 43 43 45 46 44 44 41 39 43 44 44 46 47 51 53 50 49 47 43 41 37 33 32 34 39
60 63 62 67 77 78 75 74 69 66 68 68 68 71 72 74 72 67 66 63 55 53 56 57 58 59 56 51 46 41 42 45 47 51 51 50 53 51 49 50 51 54 55 54 58 64 64 62 58 54 53 49 43 41 40 40 44 46 46 46 45 41 42 47 47 45 44 41 36 35 39 40 41 42 44 45 42 41 38 34 38 42 41 43 45 45 47 44 43 44 42 41 38 33 32 35 38
55 62 60 68 79 78 76 78 73 68 69 70 68 68 70 74 75 72 72 67 59 58 58 57 58 58 56 54 50 45 44 46 49 53 53 52 51 47 47 46 48 55 55 52 54 60 61 60 56 53 51 49 46 44 44 44 45 44 43 44 44 42 43 48 47 43 42 37 32 33 36 36 36 41 44 45 42 37 33 31 37 43 41 43 43 38 37 38 38 39 39 41 39 33 32 35 37
48 59 60 66 75 74 76 78 76 72 71 73 72 69 70 72 74 76 76 72 63 62 63 58 57 58 55 54 54 51 46 46 50 53 54 54 50 46 45 45 48 54 55 50 49 56 61 58 54 53 51 49 49 49 48 47 44 43 43 44 43 41 43 48 47 43 40 33 29 30 33 33 32 36 41 43 42 35 29 29 34 39 39 37 36 32 31 33 36 36 37 41 39 33 32 34 35
43 54 60 66 71 74 78 77 77 77 74 76 76 75 76 74 72 74 77 75 70 70 70 62 57 58 54 52 57 55 48 47 50 51 54 55 50 46 45 46 50 55 56 53 48 52 59 58 55 53 50 47 48 49 49 48 46 45 45 44 41 41 45 48 45 41 37 30 28 29 30 31 30 32 35 36 36 31 27 30 32 34 33 31 31 30 30 32 36 37 37 39 37 32 33 35 36
40 48 57 66 73 77 78 77 79 79 74 78 80 81 82 79 75 74 77 77 75 76 74 67 60 57 54 53 57 57 50 50 52 50 54 56 49 45 46 48 51 55 56 54 50 49 54 57 56 54 51 48 47 47 49 49 47 46 46 44 41 41 45 45 41 39 36 29 27 30 29 30 30 30 30 30 31 29 28 30 32 31 30 30 30 30 30 35 38 39 38 37 36 34 35 37 37
40 43 52 62 70 74 74 74 79 80 77 79 83 88 90 84 80 78 79 81 80 78 74 68 62 57 55 55 57 57 54 54 55 53 54 53 51 47 47 51 53 54 55 54 52 49 49 54 56 54 52 49 47 46 47 46 45 46 46 43 40 41 42 41 39 37 35 31 29 29 29 30 30 30 31 31 30 29 29 31 31 30 30 29 30 31 35 40 42 41 40 41 41 38 35 36 37
38 40 48 56 61 65 70 72 77 82 83 80 82 91 92 81 75 78 82 83 82 81 76 69 63 60 58 58 58 58 57 57 57 58 55 53 55 52 48 52 53 51 52 53 53 50 47 50 54 55 53 50 47 45 44 43 43 43 43 42 39 39 40 39 39 37 34 33 32 30 29 30 32 32 32 32 29 29 30 30 31 31 32 34 34 34 37 41 44 43 41 41 44 43 37 35 37
33 39 47 53 54 59 64 68 75 81 81 80 81 86 88 82 75 75 81 84 82 81 78 71 63 61 59 58 60 60 59 58 57 59 56 54 58 57 50 50 52 49 48 50 52 50 47 47 49 53 54 51 48 44 42 43 43 41 41 41 39 38 39 39 39 37 34 35 35 34 32 32 35 35 32 30 28 29 29 29 31 31 35 38 36 37 41 43 46 48 44 42 42 41 40 40 39
32 40 48 50 50 56 62 66 71 75 78 81 80 79 84 86 80 77 80 84 83 80 78 73 66 63 60 58 61 62 59 60 57 56 57 55 57 59 54 48 47 46 45 48 50 49 48 45 45 51 53 51 48 43 40 40 41 40 40 40 37 37 40 38 38 38 36 37 37 35 34 33 34 36 34 30 28 28 28 29 31 33 36 36 35 43 48 48 45 42 40 40 40 40 41 44 44
33 42 46 47 47 50 58 65 67 69 76 81 79 76 81 84 80 80 83 85 86 83 78 75 70 66 62 59 62 63 59 61 59 55 55 54 53 57 57 49 44 44 44 47 48 46 46 45 44 48 51 50 48 44 40 40 39 38 42 42 37 38 40 38 38 38 38 39 39 36 36 33 32 35 35 31 29 28 28 29 30 33 36 34 39 49 53 48 40 34 35 37 38 40 41 45 47
35 41 42 44 46 46 52 61 63 65 70 73 74 75 78 83 83 82 83 85 85 84 79 77 73 68 64 60 61 62 60 61 60 56 57 55 51 55 56 48 43 44 44 45 47 46 45 46 44 44 47 49 48 44 43 44 40 40 44 43 40 43 44 40 39 40 39 40 40 37 36 34 30 31 32 31 30 29 29 30 30 33 36 38 44 50 48 43 36 34 37 37 38 41 41 43 47
35 38 39 43 43 42 46 53 57 61 64 61 67 72 72 81 86 80 76 75 76 81 81 77 75 71 67 62 60 62 61 61 61 59 59 58 53 53 51 45 44 46 46 45 47 48 45 46 45 42 44 48 48 46 45 44 41 43 47 44 43 47 45 42 41 40 39 39 40 39 36 33 32 32 31 30 29 29 29 30 33 35 36 40 43 43 41 39 39 41 39 35 36 39 40 42 44
35 35 37 40 40 40 42 49 55 59 62 60 60 65 68 76 84 79 73 70 72 79 80 77 74 73 70 63 60 61 60 60 60 58 59 59 56 54 50 46 45 48 51 49 47 49 47 46 46 42 42 46 47 47 46 45 41 42 46 45 45 46 42 41 41 38 37 37 38 38 34 33 34 34 35 32 29 31 31 30 36 39 39 40 39 41 44 44 46 47 40 35 35 35 37 40 40
34 31 33 37 40 43 43 48 56 56 63 68 64 65 71 76 80 78 73 69 70 76 79 77 73 72 72 67 61 61 60 59 60 58 58 59 56 56 53 47 44 48 54 52 48 48 47 45 44 41 40 44 46 46 46 47 44 42 43 43 43 43 40 40 39 35 34 34 36 37 34 34 35 35 36 33 31 35 33 30 36 42 42 41 38 41 48 47 50 49 42 40 39 35 35 36 38
31 28 30 33 39 50 50 48 55 57 64 73 69 67 73 76 77 76 71 68 69 74 79 79 76 73 74 69 61 60 59 59 60 58 57 60 58 55 53 48 45 49 54 53 50 48 47 45 42 39 39 42 44 45 45 46 46 43 42 42 42 40 40 39 38 37 35 33 36 37 35 35 35 35 37 35 34 37 36 31 33 37 38 39 37 39 42 42 47 48 43 42 43 40 37 36 40
33 29 28 29 35 50 56 53 55 62 68 72 70 69 72 73 74 73 70 70 73 76 79 82 81 77 74 70 66 64 61 57 59 59 57 61 59 53 51 48 47 50 52 52 49 46 48 47 41 36 37 40 42 44 44 44 47 46 42 42 42 40 41 40 38 41 38 34 36 38 37 37 36 35 38 38 37 38 36 31 31 33 34 35 34 36 36 34 38 40 40 40 42 41 38 36 42
35 31 25 26 32 41 51 53 54 62 69 69 70 73 72 69 70 71 70 72 75 76 79 84 85 81 76 74 71 69 66 60 56 58 59 61 58 52 50 46 45 50 53 52 48 46 47 46 40 35 34 37 40 42 43 42 44 46 43 42 42 39 39 40 41 43 41 37 38 38 38 39 40 38 39 38 37 38 36 33 32 32 34 34 33 34 33 32 31 33 36 37 39 43 42 38 42
31 28 21 22 29 35 44 52 55 61 68 68 69 73 74 70 70 71 68 69 75 77 80 84 84 83 81 76 72 70 70 66 59 58 59 60 57 53 51 45 44 51 53 52 50 47 46 45 41 35 32 35 37 38 40 41 41 44 43 43 44 40 37 42 43 43 43 43 43 42 40 42 44 43 41 40 38 36 35 35 33 33 35 34 33 33 33 32 31 31 35 35 36 44 44 39 38
27 26 23 20 25 30 40 54 60 61 65 69 72 73 75 74 74 74 71 70 74 77 82 84 83 83 81 77 74 71 72 71 66 60 57 56 55 53 50 46 45 48 51 53 52 47 44 45 42 37 32 33 34 35 38 39 39 41 42 44 45 41 40 44 43 42 46 47 46 45 44 45 45 43 44 45 43 37 34 36 34 35 36 35 34 33 31 33 33 32 35 35 34 38 39 36 35
21 26 28 26 29 30 35 49 60 63 65 69 74 74 74 75 76 77 76 73 72 72 78 83 82 81 80 79 77 71 70 74 73 67 58 53 53 53 51 49 47 48 53 57 54 47 44 44 43 40 34 32 35 37 37 38 40 40 40 42 43 44 45 46 45 45 47 47 47 46 47 48 46 43 44 47 46 41 37 36 35 36 38 35 34 35 32 32 33 32 36 38 36 35 34 33 34
15 21 25 28 33 33 35 45 51 59 64 66 71 73 73 75 75 73 73 72 70 69 74 78 78 78 77 79 78 71 67 71 73 71 62 53 52 53 52 52 54 52 53 57 56 50 47 46 44 42 38 37 39 40 37 36 39 42 42 41 41 45 47 46 47 49 49 48 47 46 47 49 49 46 45 46 46 45 41 37 34 37 42 40 35 36 35 34 34 34 37 41 42 42 38 36 35
13 18 22 25 30 31 35 41 44 52 59 60 67 71 70 71 73 71 69 69 69 68 70 76 80 80 77 78 78 73 69 70 70 68 63 58 54 52 50 54 59 55 51 58 61 53 48 46 43 41 39 39 40 40 38 36 37 42 45 43 41 43 45 48 49 49 51 50 47 46 46 48 50 48 47 44 44 46 45 41 37 38 43 45 41 39 39 38 36 35 36 38 43 45 43 42 38
12 14 17 22 30 33 35 38 40 45 49 51 60 68 68 66 69 72 70 68 69 70 72 76 80 82 78 77 77 74 71 71 70 67 64 62 57 51 48 52 57 55 55 62 61 51 48 47 43 41 40 39 39 40 40 39 38 39 43 45 45 43 43 48 49 48 52 53 49 48 48 49 50 49 49 47 43 44 46 45 44 42 42 46 46 44 45 44 40 37 37 37 39 40 39 39 38